Regional Weather Roundup
Issued by NWS

Home | Current Version | Previous Version | Graphics & Text | Print | Product List | Glossary On
Versions: 1 2 3 4 5 6 7 8 9 10 11 12 13 14 15 16 17 18 19 20 21 22 23 24 25 26 27 28 29 30 31 32 33 34 35 36 37 38 39 40 41 42 43 44 45 46 47 48 49 50
000
ASUS43 KMKX 190459
RWRWI

WISCONSIN REGIONAL WEATHER ROUNDUP
NATIONAL WEATHER SERVICE MILWAUKEE/SULLIVAN WI
1100 PM CST SUN FEB 18 2018

NOTE: "FAIR" INDICATES FEW OR NO CLOUDS BELOW 12,000 FEET WITH NO
SIGNIFICANT WEATHER AND/OR OBSTRUCTIONS TO VISIBILITY.

WIZ001-002-006>008-014>016-023>028-190600-
NORTHWEST WISCONSIN

CITY           SKY/WX    TMP DP  RH WIND       PRES   REMARKS
SUPERIOR ARPT  CLOUDY    22  16  80 NE9       29.86R WCI  11
ASHLAND        LGT SNOW  23  21  92 N17       29.83R FOG     WCI   9
HAYWARD        CLOUDY    26  21  81 N13       29.76R WCI  15
SIREN          CLOUDY    26  21  83 NE9       29.76R WCI  16
CUMBERLAND     MOCLDY    32  27  80 N3        29.71R
RICE LAKE      FAIR      32  26  79 CALM      29.73R
CHETEK         CLOUDY    35  27  72 SE5       29.72R WCI  31
LADYSMITH      CLOUDY    35  25  68 SE6       29.74S WCI  30
EAU CLAIRE     CLOUDY    34  27  75 SE5       29.72R WCI  30
MENOMONIE      MOCLDY    36  29  78 E3        29.71F
NEW RICHMOND   FAIR      32  27  83 W6        29.72R WCI  26
OSCEOLA        FAIR      29  24  84 N6        29.76R WCI  22
$$

WIZ003>005-009-010-017-018-190600-
NORTH CENTRAL WISCONSIN

CITY           SKY/WX    TMP DP  RH WIND       PRES   REMARKS
MANITOWISH WTR CLOUDY    31  24  74 SE5       29.73S WCI  26
ARBOR VITAE    CLOUDY    34  27  74 S8        29.74S WCI  27
WOODRUFF       CLOUDY    34  27  74 S8        29.74S WCI  27
RHINELANDER    CLOUDY    33  25  72 S7        29.76S WCI  27
EAGLE RIVER    CLOUDY    32  23  68 S5        29.75S WCI  28
LAND O LAKES   CLOUDY    33  23  67 SW3       29.77R
PHILLIPS       CLOUDY    32  25  74 S7        29.73S WCI  26
TOMAHAWK       CLOUDY    32  24  73 CALM      29.76S
MEDFORD        CLOUDY    33  27  80 S13       29.73F WCI  23
MERRILL        CLOUDY    32  25  75 CALM      29.77F
$$

WIZ029-030-035-036-043>047-190600-
CENTRAL WISCONSIN

CITY           SKY/WX    TMP DP  RH WIND       PRES   REMARKS
WAUSAU         FAIR      29  23  78 SE8       29.76S WCI  21
MOSINEE        NOT AVBL
MARSHFIELD     CLOUDY    30  25  81 S8        29.74F WCI  22
STEVENS POINT  FAIR      29  26  87 SE6       29.79F WCI  23
WAUPACA        CLOUDY    38  30  73 S8        29.82F WCI  32
WAUTOMA        CLOUDY    35  29  78 SE7       29.81F WCI  29
WISC RAPIDS    FAIR      33  25  72 S6        29.78F WCI  28
CAMP DOUGLAS   FAIR      37  29  74 S13G21    29.75F WCI  28
$$

WIZ011>013-019>022-031-037>040-048>050-190600-
NORTHEAST WISCONSIN

CITY           SKY/WX    TMP DP  RH WIND       PRES   REMARKS
ANTIGO         CLOUDY    29  24  82 S10       29.78F WCI  20
SHAWANO        CLOUDY    35  26  70 S3        29.83F
OCONTO         CLOUDY    32  27  80 S6        29.86S WCI  27
STURGEON BAY   CLOUDY    35  30  82 S15       29.87F WCI  25
GREEN BAY      CLOUDY    35  27  72 S9        29.85F WCI  28
MANITOWOC      CLOUDY    35  30  82 S12       29.88F WCI  27
APPLETON       CLOUDY    32  25  74 S8        29.82F WCI  25
CLINTONVILLE   CLOUDY    34  26  71 S8        29.82F WCI  27
OSHKOSH        MOCLDY    30  26  85 S5        29.84F WCI  25
$$

WIZ032>034-041-042-053>061-190600-
SOUTHWEST WISCONSIN

CITY           SKY/WX    TMP DP  RH WIND       PRES   REMARKS
LA CROSSE      CLOUDY    38  30  73 S17       29.73F WCI  28
SPARTA         FAIR      38  30  73 CALM      29.76F
VIROQUA        FAIR      36  31  83 S13G18    29.74F WCI  27
BOSCOBEL       FAIR      39  29  67 SW8       29.79F WCI  33
PRAIRIE DU CHI MOCLDY    41  28  60 SE8       29.77S
PLATTEVILLE    CLOUDY    38  32  78 S10G18    29.80S WCI  31
$$

WIZ056-057-062-063-064-067-068-190600-
SOUTH CENTRAL WISCONSIN

CITY           SKY/WX    TMP DP  RH WIND       PRES   REMARKS
REEDSBURG      FAIR      37  30  76 S8        29.78F WCI  31
BARABOO/DELLS  CLOUDY    37  30  77 S12G17    29.79F WCI  29
LONE ROCK      NOT AVBL
MINERAL POINT  CLOUDY    36  34  93 SE8       29.79S WCI  29
MADISON        FAIR      36  30  79 S10       29.83F WCI  28
MIDDLETON      FAIR      38  32  78 S7        29.82F WCI  33
WATERTOWN      CLOUDY    37  32  81 S12G21    29.85S WCI  30
MONROE         MOCLDY    36  32  87 S18G24    29.81F WCI  25
JANESVILLE     FAIR      37  32  81 S13       29.84F WCI  29
$$

WIZ051-052-058>065-066-070>072-190600-
SOUTHEAST WISCONSIN

CITY           SKY/WX    TMP DP  RH WIND       PRES   REMARKS
MILWAUKEE      MOCLDY    36  30  79 S7        29.87F WCI  30
WAUKESHA       MOCLDY    34  28  80 S5        29.87F WCI  30
MILWAUKEE/TIMM FAIR      32  28  86 S3        29.88F
RACINE         FAIR      35  30  82 S7        29.90R WCI  29
BURLINGTON     FAIR      39  29  69 S12G18    29.87F WCI  31
KENOSHA        FAIR      39  29  67 S9        29.87S WCI  33
FOND DU LAC    MOCLDY    34  26  72 S9        29.84F WCI  27
SHEBOYGAN      CLOUDY    33  31  92 S9        29.87F WCI  25
WEST BEND      CLOUDY    32  30  93 SE3       29.87S
JUNEAU         MOCLDY    37  30  77 S15G23    29.86F WCI  27
$$

LSZ147-162-190600-
LAKE SUPERIOR

STATION/POSITION TIME  TEMP    WIND        PRES    WAVE
                       AIR SEA DIR/SP/G            HT/PER
                 (UTC) (F)     (DEG/KT/KT) (MB)    (FT/S)
DEVILS ISLAND    0400   23      30/ 20/ 24 1011.7R
SAXON HARBOR     0430   27      30/ 11/ 15 1009.5R
$$

LMZ867-665-643>646-190600-
LAKE MICHIGAN

STATION/POSITION TIME  TEMP    WIND        PRES    WAVE
                       AIR SEA DIR/SP/G            HT/PER
                 (UTC) (F)     (DEG/KT/KT) (MB)    (FT/S)
NORTHPORT PIER   0440   36                 1011.9S
KEWAUNEE LAKESHO 0430   36     190/ 17/ 22 1011.4F
SHEBOYGAN LAKESH 0400   36     190/ 25/ 29 1012.4R
PORT WASHINGTON  0430   34     200/  6/ 13 1013.5S
MILWAUKEE LAKESH 0440   36     170/  7/  7   N/A
KENOSHA   LAKESH 0400   35     180/ 16/ 25 1011.9
$$

TC  - TEMPERATURE IN CELSIUS
VSB - VISIBILITY IN STATUTE MILES
WCI - WIND CHILL INDEX
HX  - HEAT INDEX





USA.gov is the U.S. government's official web portal to all federal, state and local government web resources and services.